Change the Weather History Date:

Tuesday, August 21, 2012

  Actual Average Record
Temperature  
Mean Temperature 54 °F -  
Max Temperature 62 °F 59 °F 75 °F (2014)
Min Temperature 50 °F 48 °F 39 °F (1986)
Degree Days  
Heating Degree Days 10    
Growing Degree Days 4 (Base 50)    
Moisture  
Dew Point 49 °F    
Average Humidity 82    
Maximum Humidity 96    
Minimum Humidity 72    
Precipitation  
Precipitation 0.00 in - - ()
Sea Level Pressure  
Sea Level Pressure 29.94 in    
Wind  
Wind Speed 4 mph (SW)    
Max Wind Speed 23 mph    
Max Gust Speed 25 mph    
Visibility 10 miles    
Events Rain    
Averages and records for this station are not official NWS values.
T = Trace of Precipitation, MM = Missing Value Source: NWS Daily Summary

Daily Weather History Graph

Daily Weather History Graph

Search for Another Location

Airport or City:

Trip Planner

Search our weather history database for the weather conditions in past years. The results will help you decide how hot, cold, wet, or windy it might be!

Date:

Astronomy

Aug. 21, 2012 Rise Set
Actual Time 5:33 AM AKDT 8:33 PM AKDT
Civil Twilight 4:46 AM AKDT 9:20 PM AKDT
Nautical Twilight 3:41 AM AKDT 10:24 PM AKDT
Astronomical Twilight 1:51 AM AKDT 12:06 AM AKDT
Moon 11:43 AM AKDT (8/21) 9:02 PM AKDT (8/21)
Length of Visible Light 16h 33m
Length of Day
14h 59m
Waxing Crescent, 21% of the Moon is Illuminated
Aug 21
Waxing Crescent
Aug 24
First Quarter
Aug 31
Full
Sep 8
Last Quarter
Sep 15
New

Hourly Weather History & Observations

Time (AKDT) Temp. Dew Point Humidity Pressure Visibility Wind Dir Wind Speed Gust Speed Precip Events Conditions
12:53 AM 53.1 °F 48.9 °F 86% 29.97 in 10.0 mi NE 3.5 mph - N/A   Partly Cloudy
1:53 AM 53.1 °F 48.9 °F 86% 29.97 in 10.0 mi Calm Calm - N/A   Clear
2:53 AM 51.1 °F 48.0 °F 89% 29.97 in 10.0 mi Calm Calm - N/A   Clear
3:53 AM 51.1 °F 48.0 °F 89% 29.97 in 10.0 mi NNE 3.5 mph - N/A   Partly Cloudy
4:53 AM 51.1 °F 48.0 °F 89% 29.97 in 10.0 mi Calm Calm - N/A   Partly Cloudy
5:53 AM 50.0 °F 48.9 °F 96% 29.97 in 10.0 mi Calm Calm - N/A   Clear
6:53 AM 51.1 °F 48.0 °F 89% 29.98 in 10.0 mi Calm Calm - N/A   Scattered Clouds
7:53 AM 53.1 °F 48.9 °F 86% 29.97 in 10.0 mi NNE 3.5 mph - N/A   Clear
8:53 AM 55.0 °F 50.0 °F 83% 29.97 in 10.0 mi Calm Calm - N/A   Partly Cloudy
9:53 AM 52.0 °F 48.0 °F 86% 29.97 in 10.0 mi Calm Calm - N/A   Overcast
10:53 AM 55.9 °F 50.0 °F 80% 29.96 in 10.0 mi Calm Calm - N/A   Overcast
11:53 AM 55.9 °F 48.9 °F 77% 29.95 in 10.0 mi WSW 3.5 mph - N/A   Scattered Clouds
12:53 PM 57.0 °F 50.0 °F 77% 29.94 in 10.0 mi SW 3.5 mph - N/A   Partly Cloudy
1:53 PM 57.9 °F 51.1 °F 78% 29.92 in 10.0 mi SSW 15.0 mph - N/A   Mostly Cloudy
2:53 PM 59.0 °F 50.0 °F 72% 29.91 in 10.0 mi SSW 19.6 mph - N/A   Partly Cloudy
3:53 PM 57.0 °F 48.9 °F 74% 29.90 in 10.0 mi SSW 23.0 mph - N/A   Clear
4:53 PM 57.0 °F 48.9 °F 74% 29.89 in 10.0 mi SSW 21.9 mph - N/A   Clear
5:53 PM 59.0 °F 50.0 °F 72% 29.90 in 10.0 mi SSW 17.3 mph 25.3 mph N/A   Clear
6:53 PM 59.0 °F 50.0 °F 72% 29.90 in 10.0 mi SSW 15.0 mph 24.2 mph N/A   Clear
7:53 PM 59.0 °F 50.0 °F 72% 29.91 in 10.0 mi SSW 9.2 mph 19.6 mph N/A   Scattered Clouds
8:53 PM 57.0 °F 50.0 °F 77% 29.92 in 10.0 mi West 5.8 mph - N/A   Partly Cloudy
9:53 PM 57.0 °F 50.0 °F 77% 29.93 in 10.0 mi Calm Calm - N/A   Overcast
10:53 PM 55.0 °F 50.0 °F 83% 29.94 in 10.0 mi Calm Calm - N/A   Mostly Cloudy
11:06 PM 55.4 °F 51.8 °F 88% 29.93 in 10.0 mi Calm Calm - 0.00 in Rain Light Rain
11:53 PM 55.0 °F 51.1 °F 86% 29.94 in 10.0 mi Calm Calm - 0.00 in   Overcast